Voltar ao catálogo

STARLINK-11443

AtivoComunicaçõesVLEO
NORAD 62512·PAYLOAD·🇺🇸 United States

Lançado Jan 8, 2025 de Cape Canaveral Space Force Station

Loading…

Próximas Passagens (próximas 24 horas)

TLE

AtualizadoSource: CelesTrak SupGP

Época: Sep 15, 2026, 02:22 UTC

1 62512C 25004B   26258.09909722 -.00087415  00000+0 -67887-3 0  2581
2 62512  43.0010   9.4506 0001724 261.3053  77.6677 15.70884468    16

Acompanhe STARLINK-11443 em tempo real com AllMySat

Download on the App Store